Location: Borojevi?i
(45.0486°N, 16.2297°E)
Time: 22:12:17
(UTC+00:00)

USA 186 - Pass Details

Date: 08 August 2020
Orbit: 262 x 428 km, 96.9° (Epoch: 21 September)

Event Time Altitude Azimuth Distance (km) Brightness Sun altitude
Rises 17:22:51 0° 115° (ESE) 1,914 4.4 7.3°
Enters shadow 18:21:33 -68° 170° (S) 12,301 9.0 -2.4°
Maximum altitude 18:56:24 26° 262° (W) 582 3.1 -7.8°
